Regional Weather Roundup
Issued by NWS

Home | Current Version | Previous Version | Graphics & Text | Print | Product List | Glossary On
Versions: 1 2 3 4 5 6 7 8 9 10 11 12 13 14 15 16 17 18 19 20 21 22 23 24 25 26 27 28 29 30 31 32 33 34 35 36 37 38 39 40 41 42 43 44 45 46 47 48 49 50
000
ASUS45 KBOI 282310
RWRID

IDAHO REGIONAL WEATHER ROUNDUP
NATIONAL WEATHER SERVICE BOISE ID
500 PM MDT THU MAY 28 2015

NOTE: "FAIR" INDICATES FEW OR NO CLOUDS BELOW 12000 FEET
WITH NO SIGNIFICANT WEATHER AND/OR OBSTRUCTIONS TO VISIBILITY

IDZ012-014-290000-
SOUTHWEST IDAHO


CITY           SKY/WX    TMP DP  RH WIND       PRES   REMARKS
BOISE          SUNNY     77  43  29 W9        30.03F
CALDWELL       SUNNY     79  41  25 NW7       30.04F
MOUNTAIN HOME  SUNNY     79  36  21 NW8       30.03F
$$

IDZ016-017-290000-
SOUTHCENTRAL IDAHO


CITY           SKY/WX    TMP DP  RH WIND       PRES   REMARKS
BURLEY         MOSUNNY   69  43  38 VRB7      30.09S
JEROME         SUNNY     71  37  28 SW7       30.09F
TWIN FALLS     SUNNY     73  37  27 W9        30.08F
$$

IDZ019>023-290000-
SOUTHEAST IDAHO


CITY           SKY/WX    TMP DP  RH WIND       PRES   REMARKS
IDAHO FALLS    CLOUDY    62  44  51 E5        30.12F
POCATELLO      PTSUNNY   67  39  35 NW8       30.12F
REXBURG        PTSUNNY   59  44  57 W5        30.13F
$$

IDZ006-010-011-018-031-032-290000-
CENTRAL IDAHO MOUNTAINS


CITY           SKY/WX    TMP DP  RH WIND       PRES   REMARKS
MCCALL         MOSUNNY   66  38  35 VRB5      30.11F
HAILEY         PTSUNNY   66  43  42 SE12      30.12F
STANLEY          N/A     62  33  33 NW5       30.17F
SALMON         CLOUDY    66  43  42 E20       30.11R
CHALLIS        CLOUDY    65  40  39 NE9       30.12S
$$

IDZ002-004-006-007-026-290000-
NORTHERN IDAHO


CITY           SKY/WX    TMP DP  RH WIND       PRES   REMARKS
LEWISTON       SUNNY     82  45  27 MISG      30.02F
LOWELL           N/A     79  48  33 VRB7      30.02S
COEUR D`ALENE  MOSUNNY   79  48  34 SW6       30.04S
MULLAN PASS    CLOUDY    53  45  74 CALM      30.21S
$$


USA.gov is the U.S. government's official web portal to all federal, state and local government web resources and services.